[[{"header":{"parameterUnit":"m.s-1","parameterCategory":1,"la1":30.2992,"la2":30.254,"lo1":-89.0895,"lo2":-89.0443,"dy":0.0025,"dx":0.0025,"nx":19,"ny":19,"refTime":"2026-04-03T09:00:00:Z","depth":0,"parameterNumber":2,"parameterNumberName":"U-component_of_WINDS"},"data":[0,0,0,-4.0284,-4.0287,-4.0425,-4.0425,-4.0601,-4.0603,0,0,0,0,0,0,0,0,0,0,0,-4.0243,-4.0244,-4.0283,-4.0287,-4.0425,-4.0425,-4.0601,-4.0603,0,0,0,0,0,0,0,0,0,0,0,-4.0242,-4.0243,-4.0245,-4.0287,-4.0425,-4.0425,-4.0601,-4.0497,0,0,0,0,0,0,0,0,0,0,-4.0363,-4.0324,-4.0243,-4.0245,-4.0288,-4.0424,-4.0425,-4.0492,-4.0503,-4.0539,0,-4.057,0,-4.0589,-4.0615,-4.0615,0,0,0,-4.0287,-4.0315,-4.0352,-4.0245,-4.0289,-4.0424,-4.0363,-4.0498,-4.0511,-4.0554,-4.0573,-4.0579,-4.0592,-4.0616,-4.0617,-4.082,-4.0821,0,0,-4.0279,-4.0267,-4.0343,-4.0361,-4.0339,-4.0358,-4.0367,-4.0506,-4.0526,-4.0573,-4.0583,-4.0595,-4.0617,-4.0618,-4.0819,-4.0821,0,0,0,-4.0257,-4.0262,-4.0296,-4.0354,-4.0378,-4.0362,-4.0372,-4.0519,-4.0532,-4.0585,-4.0597,-4.0618,-4.062,-4.0818,-4.082,-4.0853,0,0,0,-4.0253,-4.0249,-4.0293,-4.0286,-4.0376,-4.0451,-4.0382,-4.0522,-4.0538,-4.0596,-4.0618,-4.0622,-4.0817,-4.0819,-4.085,-4.0869,0,0,0,-4.0234,-4.0247,-4.0267,-4.0285,-4.0344,-4.0449,-4.0469,-4.0526,-4.0545,-4.0616,-4.0622,-4.0817,-4.0819,-4.0847,-4.0865,-4.0918,0,0,0,-4.0209,-4.0294,-4.0267,-4.0367,-4.0343,-4.0469,-4.0468,-4.0562,-4.0627,-4.0619,-4.0818,-4.082,-4.0846,-4.0862,-4.0915,-4.0958,-4.0976,0,0,-4.031,-4.0306,-4.0366,-4.0345,-4.0472,-4.0449,-4.0581,-4.0652,-4.067,-4.0769,-4.0774,-4.0851,-4.0865,-4.0917,-4.1083,-4.1097,0,0,0,-4.0393,-4.0436,-4.0472,-4.0533,-4.0589,-4.0639,-4.0691,-4.0717,-4.0802,-4.0719,-4.0886,-4.0895,-4.0926,-4.0947,-4.0959,-4.0986,-4.083,-4.083,-4.0829,-4.0515,-4.0535,-4.0634,-4.067,-4.0729,-4.0783,-4.0832,-4.0877,-4.0879,-4.0919,-4.0947,-4.1045,-4.107,-4.1079,-4.1107,-4.0974,-4.0974,-4.0974,-4.0974,-4.0662,-4.0724,-4.0726,-4.0823,-4.0843,-4.0926,-4.0981,-4.098,-4.1059,-4.1026,-4.1054,-4.1013,-4.1093,-4.1118,-4.0977,-4.0977,-4.0976,-4.0976,-4.0976,-4.0741,-4.0774,-4.0806,-4.0895,-4.0962,-4.0997,-4.1073,-4.1089,-4.1105,-4.1134,-4.1165,-4.1164,-4.1164,-4.1148,-4.1149,-4.1149,-4.1149,-4.1149,-4.115,-4.081,-4.0845,-4.0906,-4.0974,-4.1015,-4.1071,-4.1127,-4.1168,-4.1217,-4.1223,-4.1224,-4.1221,-4.1099,-4.1066,-4.1155,-4.1154,-4.1153,-4.1153,-4.1152,-4.0947,-4.0919,-4.1013,-4.1055,-4.1135,-4.12,-4.1222,-4.1304,-4.1341,-4.1377,-4.137,-4.1278,-4.1275,-4.1266,-4.1238,-4.1367,-4.1367,-4.1367,-4.1367,-4.1011,-4.1013,-4.1113,-4.1177,-4.1243,-4.1272,-4.1378,-4.1423,-4.1465,-4.1489,-4.1474,-4.144,-4.143,-4.1433,-4.142,-4.1395,-4.156,-4.1561,-4.1561,-4.1095,-4.1104,-4.119,-4.1231,-4.1296,-4.1351,-4.1451,-4.1526,-4.1568,-4.1569,-4.1508,-4.1499,-4.1446,-4.1428,-4.1423,-4.1403,-4.1357,0,0]},{"header":{"parameterUnit":"m.s-1","parameterCategory":1,"la1":30.2992,"la2":30.254,"lo1":-89.0895,"lo2":-89.0443,"dy":0.0025,"dx":0.0025,"nx":19,"ny":19,"refTime":"2026-04-03T09:00:00:Z","depth":0,"parameterNumber":3,"parameterNumberName":"V-component_of_WINDS"},"data":[0,0,0,3.6,3.6003,3.6141,3.6141,3.6315,3.6316,0,0,0,0,0,0,0,0,0,0,0,3.5957,3.5959,3.5999,3.6003,3.6141,3.6141,3.6315,3.6316,0,0,0,0,0,0,0,0,0,0,0,3.5957,3.5958,3.596,3.6003,3.6141,3.6142,3.6314,3.6211,0,0,0,0,0,0,0,0,0,0,3.6077,3.6037,3.5958,3.596,3.6004,3.6141,3.6142,3.6206,3.6217,3.6251,0,3.6282,0,3.6302,3.6328,3.6329,0,0,0,3.6003,3.6028,3.6066,3.596,3.6005,3.614,3.6079,3.6212,3.6225,3.6266,3.6284,3.6291,3.6305,3.6329,3.633,3.6528,3.6529,0,0,3.5996,3.5981,3.6057,3.6075,3.6054,3.6074,3.6083,3.622,3.6238,3.6285,3.6295,3.6308,3.633,3.6332,3.6527,3.6529,0,0,0,3.5973,3.5976,3.6011,3.6067,3.6093,3.6078,3.6088,3.6232,3.6245,3.6297,3.631,3.6331,3.6333,3.6526,3.6528,3.656,0,0,0,3.5969,3.5963,3.6008,3.6,3.609,3.6164,3.6097,3.6236,3.6252,3.6309,3.6331,3.6335,3.6525,3.6527,3.6557,3.6577,0,0,0,3.5949,3.596,3.598,3.5999,3.6058,3.6162,3.6183,3.6239,3.626,3.6329,3.6335,3.6525,3.6527,3.6554,3.6573,3.6627,0,0,0,3.5922,3.6005,3.598,3.6077,3.6057,3.6182,3.6183,3.6275,3.6339,3.6332,3.6526,3.6528,3.6554,3.657,3.6624,3.6669,3.6687,0,0,3.6018,3.6015,3.6074,3.6056,3.6182,3.6162,3.6292,3.6362,3.6381,3.6478,3.6483,3.6558,3.6572,3.6626,3.6791,3.6805,0,0,0,3.6099,3.6141,3.6177,3.6238,3.6296,3.6347,3.6399,3.6426,3.651,3.6428,3.6592,3.6601,3.6633,3.6656,3.6668,3.6696,3.6537,3.6537,3.6537,3.6212,3.6234,3.6333,3.6373,3.6432,3.6487,3.6537,3.6582,3.6585,3.6623,3.6652,3.675,3.6776,3.6785,3.6815,3.6678,3.6678,3.6678,3.6678,3.6354,3.6417,3.6423,3.6521,3.6544,3.6626,3.6683,3.6683,3.6763,3.6729,3.6758,3.672,3.6799,3.6827,3.6681,3.668,3.668,3.668,3.668,3.6431,3.6465,3.6498,3.6591,3.6659,3.6697,3.6774,3.6792,3.6808,3.6838,3.6871,3.687,3.6873,3.6852,3.6853,3.6853,3.6853,3.6854,3.6854,3.6497,3.6533,3.6597,3.6668,3.6711,3.677,3.6829,3.6871,3.6923,3.6929,3.693,3.693,3.6803,3.6771,3.6859,3.6858,3.6858,3.6857,3.6857,3.6633,3.6606,3.6704,3.6748,3.6834,3.6902,3.6925,3.7011,3.7049,3.7087,3.7082,3.6986,3.6983,3.6974,3.6948,3.7076,3.7076,3.7076,3.7076,3.6698,3.67,3.6806,3.6875,3.6944,3.6976,3.7088,3.7135,3.7179,3.7205,3.7189,3.7156,3.7145,3.7149,3.7136,3.7112,3.7279,3.728,3.728,3.6783,3.6793,3.6885,3.693,3.6999,3.7059,3.7165,3.7244,3.7288,3.7288,3.7225,3.7216,3.7163,3.7144,3.7142,3.7121,3.7077,0,0]}]]